Flag for U.S.A. Weather past 2 weeks in Olathe, Kansas, U.S.A.

Now
82 °F

Scattered clouds.


Feels Like: 86 °F
Forecast: 67 / 84 °F
Wind: 12 mph from Southwest

Location: Johnson County Executive Airport

Current Time: Sep 20, 2014 at 1:49:17 PM

Latest Report: Sep 20, 2014 at 12:53 PM


Visibility: 10 mi

Pressure: 29.95 "Hg

Humidity: 67%

Dew point: 70 °F

Location of OlatheLocation

Historic Weather in Olathe — Graph

°F

Olathe temperature yesterday

Maximum temperature yesterday: 79 °F (at 4:53 PM)
Minimum temperature yesterday: 60 °F (at 4:53 AM)
Average temperature yesterday: 68 °F

Past Weeks' High & Low Weather Summary

 TemperatureHumidityPressure
High89 °F (Sep 9, 3:53 PM)100% (Sep 11, 6:53 AM)30.42 "Hg (Sep 11, 6:53 AM)
Low40 °F (Sep 13, 5:53 AM)46% (Sep 6, 3:53 PM)29.52 "Hg (Sep 10, 12:53 AM)
Average64 °F81%30.06 "Hg
* Reported Sep 5 7:53 AM — Sep 20 7:53 AM, Olathe, Weather by CustomWeather, © 2014

Note: Actual official high and low records may vary slightly from our data, if they occured in-between our weather recording intervals... More about our weather records

Advertising

Olathe weather history for previous 24 hours

 ConditionsComfort  
Time TempWeatherWind HumidityBarometerVisibility
7:53 AM
Sep 20
68 °FFog.5 mph96%29.96 "Hg3 mi
6:53 AM68 °FFog.7 mph93%29.93 "Hg3 mi
5:53 AM66 °FFog.7 mph96%29.92 "Hg3 mi
4:53 AM66 °FFog.7 mph96%29.91 "Hg2 mi
3:53 AM66 °FFog.7 mph96%29.91 "Hg2 mi
2:53 AM67 °FFog.7 mph97%29.92 "Hg3 mi
1:53 AM68 °FFog.9 mph96%29.92 "Hg4 mi
12:53 AM68 °FFog.10 mph93%29.92 "Hg5 mi
11:53 PM
Sep 19
68 °FFog.8 mph93%29.93 "Hg6 mi
10:53 PM68 °FFog.6 mph93%29.94 "Hg6 mi
9:53 PM70 °FClear.6 mph90%29.93 "Hg8 mi
8:53 PM72 °FClear.8 mph87%29.93 "Hg10 mi
7:53 PM73 °FPassing clouds.8 mph84%29.92 "Hg10 mi
6:53 PM76 °FSunny.8 mph77%29.94 "Hg10 mi
5:53 PM78 °FSunny.12 mph74%29.95 "Hg10 mi
4:53 PM79 °FPassing clouds.12 mph72%29.92 "Hg10 mi
3:53 PM78 °FPartly sunny.9 mph74%29.93 "Hg8 mi
2:53 PM76 °FPartly sunny.8 mph77%29.95 "Hg8 mi
2:00 PM74 °FOvercast.8 mph82%30.00 "Hg8 mi
1:04 PM70 °FFog.10 mph87%30.02 "Hg6 mi
Weather by CustomWeather, © 2014

See weather overviewHow to use our weather pages